GJS4187 KIAD-KEWR

Flight info

Callsign GJS4187
Flight time 0h 39m
Altitude 27000
Route JCOBY4 SWANN PHLBO4
Aircraft CRJ7/M-SDFGIRWY/S

Departure

Time 2026-04-19 23:36
Airport Washington Dulles International Airport (KIAD)

Arrival

Time 2026-04-20 00:15
Airport Newark Liberty International Airport (KEWR)
Time Latitude Longitude Altitude Speed Heading
2026-04-19 23:14 38.94489 -77.44649 292 ft 0 kts 12°
2026-04-19 23:25 38.94481 -77.44651 294 ft 2 kts 12°
2026-04-19 23:25 38.94465 -77.44656 294 ft 2 kts 12°
2026-04-19 23:25 38.94449 -77.44660 293 ft 2 kts 12°
2026-04-19 23:25 38.94433 -77.44665 292 ft 2 kts 12°
2026-04-19 23:26 38.94418 -77.44670 292 ft 2 kts 34°
2026-04-19 23:26 38.94414 -77.44684 293 ft 0 kts 90°
2026-04-19 23:27 38.94414 -77.44683 293 ft 1 kts 90°
2026-04-19 23:28 38.94414 -77.44648 291 ft 7 kts 95°
2026-04-19 23:28 38.94413 -77.44563 290 ft 12 kts 90°
2026-04-19 23:28 38.94411 -77.44430 294 ft 18 kts 90°
2026-04-19 23:28 38.94410 -77.44268 290 ft 18 kts 90°
2026-04-19 23:29 38.94409 -77.44133 290 ft 11 kts 90°
2026-04-19 23:29 38.94408 -77.44094 291 ft 0 kts 90°
2026-04-19 23:29 38.94408 -77.44086 291 ft 3 kts 90°
2026-04-19 23:30 38.94408 -77.44025 291 ft 9 kts 94°
2026-04-19 23:30 38.94359 -77.43983 295 ft 11 kts 178°
2026-04-19 23:30 38.94260 -77.43984 294 ft 16 kts 180°
2026-04-19 23:30 38.94129 -77.43986 292 ft 21 kts 181°
2026-04-19 23:31 38.93992 -77.43988 293 ft 21 kts 180°
2026-04-19 23:31 38.93835 -77.43990 294 ft 24 kts 180°
2026-04-19 23:31 38.93682 -77.43992 293 ft 24 kts 181°
2026-04-19 23:31 38.93543 -77.43994 292 ft 20 kts 181°
2026-04-19 23:32 38.93391 -77.43997 292 ft 24 kts 180°
2026-04-19 23:32 38.93215 -77.43999 293 ft 27 kts 180°
2026-04-19 23:32 38.93042 -77.44001 294 ft 26 kts 180°
2026-04-19 23:32 38.92874 -77.44004 293 ft 19 kts 181°
2026-04-19 23:33 38.92730 -77.44007 293 ft 15 kts 180°
2026-04-19 23:33 38.92604 -77.44008 294 ft 21 kts 181°
2026-04-19 23:33 38.92458 -77.44003 293 ft 17 kts 158°
2026-04-19 23:33 38.92428 -77.43865 292 ft 18 kts 90°
2026-04-19 23:34 38.92428 -77.43779 296 ft 2 kts 90°
2026-04-19 23:34 38.92428 -77.43776 296 ft 0 kts 90°
2026-04-19 23:35 38.92427 -77.43743 298 ft 8 kts 91°
2026-04-19 23:35 38.92433 -77.43667 304 ft 9 kts 72°
2026-04-19 23:35 38.92464 -77.43640 304 ft 4 kts 355°
2026-04-19 23:35 38.92532 -77.43641 305 ft 20 kts
2026-04-19 23:36 38.92932 -77.43635 303 ft 97 kts 360°
2026-04-19 23:36 38.93828 -77.43604 362 ft 154 kts 356°
2026-04-19 23:36 38.94969 -77.43555 935 ft 170 kts 356°
2026-04-19 23:36 38.96102 -77.43513 2108 ft 153 kts 357°
2026-04-19 23:37 38.97202 -77.43400 2863 ft 171 kts 358°
2026-04-19 23:37 38.98509 -77.43256 3172 ft 207 kts 359°
2026-04-19 23:37 39.00034 -77.42972 3289 ft 235 kts 14°
2026-04-19 23:37 39.01371 -77.41868 3316 ft 220 kts 26°
2026-04-19 23:38 39.02760 -77.41490 3227 ft 203 kts 352°
2026-04-19 23:38 39.04251 -77.41633 3253 ft 226 kts 351°
2026-04-19 23:38 39.05896 -77.41845 3308 ft 248 kts 350°
2026-04-19 23:38 39.07668 -77.42101 3342 ft 265 kts 349°
2026-04-19 23:39 39.09462 -77.42386 3376 ft 252 kts 349°
2026-04-19 23:39 39.11169 -77.42506 3392 ft 244 kts
2026-04-19 23:39 39.12714 -77.41407 3439 ft 278 kts 42°
2026-04-19 23:39 39.13613 -77.39272 3472 ft 276 kts 70°
2026-04-19 23:40 39.14197 -77.36784 3862 ft 298 kts 69°
2026-04-19 23:40 39.14883 -77.34318 4874 ft 293 kts 63°
2026-04-19 23:40 39.15371 -77.31811 6109 ft 290 kts 85°
2026-04-19 23:40 39.15331 -77.29189 6938 ft 296 kts 90°
2026-04-19 23:41 39.15189 -77.26513 7701 ft 301 kts 94°
2026-04-19 23:41 39.14857 -77.23827 8462 ft 307 kts 99°
2026-04-19 23:41 39.14395 -77.21113 9157 ft 314 kts 102°
2026-04-19 23:41 39.13887 -77.18350 9900 ft 319 kts 102°
2026-04-19 23:42 39.13376 -77.15531 10525 ft 326 kts 102°
2026-04-19 23:42 39.12884 -77.12649 11119 ft 333 kts 102°
2026-04-19 23:42 39.12405 -77.09736 11724 ft 340 kts 102°
2026-04-19 23:42 39.11912 -77.06712 12335 ft 348 kts 102°
2026-04-19 23:43 39.11413 -77.03634 12919 ft 355 kts 103°
2026-04-19 23:43 39.10897 -77.00492 13547 ft 362 kts 104°
2026-04-19 23:43 39.10501 -76.97251 14124 ft 370 kts 92°
2026-04-19 23:43 39.10578 -76.93921 14729 ft 374 kts 85°
2026-04-19 23:44 39.10803 -76.90566 15320 ft 378 kts 85°
2026-04-19 23:44 39.11017 -76.87176 15855 ft 382 kts 87°
2026-04-19 23:44 39.11157 -76.83751 16429 ft 385 kts 91°
2026-04-19 23:44 39.11214 -76.80336 17051 ft 387 kts 93°
2026-04-19 23:45 39.11258 -76.76857 17665 ft 390 kts 93°
2026-04-19 23:45 39.11306 -76.73353 18266 ft 393 kts 93°
2026-04-19 23:45 39.11370 -76.69821 18771 ft 397 kts 93°
2026-04-19 23:45 39.11436 -76.66259 19235 ft 400 kts 94°
2026-04-19 23:46 39.11505 -76.62652 19708 ft 404 kts 93°
2026-04-19 23:46 39.11577 -76.59019 20174 ft 408 kts 93°
2026-04-19 23:46 39.11654 -76.55340 20628 ft 412 kts 93°
2026-04-19 23:46 39.11731 -76.51632 21090 ft 416 kts 91°
2026-04-19 23:47 39.12065 -76.47892 21504 ft 423 kts 84°
2026-04-19 23:47 39.12590 -76.44147 21949 ft 427 kts 83°
2026-04-19 23:47 39.13136 -76.40364 22397 ft 430 kts 83°
2026-04-19 23:47 39.13627 -76.36547 22821 ft 433 kts 85°
2026-04-19 23:48 39.14041 -76.32742 23225 ft 436 kts 86°
2026-04-19 23:48 39.14462 -76.28812 23634 ft 439 kts 86°
2026-04-19 23:48 39.14904 -76.24940 23956 ft 444 kts 83°
2026-04-19 23:48 39.15928 -76.21158 24225 ft 452 kts 59°
2026-04-19 23:49 39.17847 -76.17977 24507 ft 448 kts 37°
2026-04-19 23:49 39.20360 -76.15678 24847 ft 441 kts 22°
2026-04-19 23:49 39.23005 -76.13585 24941 ft 451 kts 25°
2026-04-19 23:49 39.25581 -76.11177 25027 ft 464 kts 35°
2026-04-19 23:50 39.27976 -76.08381 25072 ft 464 kts 40°
2026-04-19 23:50 39.30282 -76.05462 25084 ft 463 kts 40°
2026-04-19 23:50 39.32583 -76.02553 25087 ft 462 kts 40°
2026-04-19 23:50 39.34920 -75.99703 25088 ft 461 kts 38°
2026-04-19 23:51 39.37292 -75.96931 25086 ft 460 kts 37°
2026-04-19 23:51 39.39669 -75.94156 25134 ft 460 kts 38°
2026-04-19 23:51 39.42004 -75.91399 25113 ft 461 kts 37°
2026-04-19 23:51 39.44378 -75.88596 25095 ft 461 kts 37°
2026-04-19 23:52 39.46756 -75.85782 24920 ft 466 kts 37°
2026-04-19 23:52 39.49115 -75.82985 24551 ft 451 kts 37°
2026-04-19 23:52 39.51392 -75.80291 24176 ft 436 kts 37°
2026-04-19 23:52 39.53598 -75.77678 23747 ft 423 kts 38°
2026-04-19 23:53 39.55797 -75.75107 23320 ft 430 kts 38°
2026-04-19 23:53 39.58051 -75.72491 22892 ft 439 kts 38°
2026-04-19 23:53 39.60328 -75.69801 22524 ft 446 kts 38°
2026-04-19 23:53 39.62618 -75.67087 22106 ft 443 kts 38°
2026-04-19 23:54 39.64886 -75.64396 21696 ft 441 kts 38°
2026-04-19 23:54 39.67110 -75.61761 21287 ft 434 kts 38°
2026-04-19 23:54 39.69320 -75.59103 20880 ft 431 kts 39°
2026-04-19 23:54 39.71456 -75.56471 20860 ft 417 kts 39°
2026-04-19 23:55 39.73561 -75.53874 20397 ft 417 kts 40°
2026-04-19 23:55 39.75679 -75.51278 19924 ft 418 kts 39°
2026-04-19 23:55 39.77800 -75.48713 19467 ft 416 kts 39°
2026-04-19 23:55 39.79921 -75.46154 19012 ft 417 kts 39°
2026-04-19 23:56 39.82051 -75.43579 18554 ft 417 kts 39°
2026-04-19 23:56 39.84172 -75.41008 18055 ft 415 kts 39°
2026-04-19 23:56 39.86263 -75.38481 17553 ft 405 kts 38°
2026-04-19 23:56 39.88276 -75.36049 17058 ft 396 kts 38°
2026-04-19 23:57 39.90278 -75.33629 16557 ft 388 kts 38°
2026-04-19 23:57 39.92240 -75.31255 16072 ft 381 kts 37°
2026-04-19 23:57 39.94167 -75.28924 15589 ft 374 kts 37°
2026-04-19 23:57 39.96076 -75.26623 15125 ft 372 kts 36°
2026-04-19 23:58 39.97966 -75.24352 14700 ft 367 kts 36°
2026-04-19 23:58 39.99824 -75.22112 14247 ft 362 kts 36°
2026-04-19 23:58 40.01652 -75.19887 13783 ft 357 kts 36°
2026-04-19 23:58 40.03457 -75.17683 13260 ft 352 kts 36°
2026-04-19 23:59 40.05227 -75.15521 12756 ft 346 kts 37°
2026-04-19 23:59 40.06970 -75.13387 12254 ft 340 kts 37°
2026-04-19 23:59 40.08684 -75.11291 11801 ft 334 kts 37°
2026-04-19 23:59 40.10362 -75.09233 11316 ft 328 kts 37°
2026-04-20 00:00 40.11986 -75.07235 10823 ft 322 kts 36°
2026-04-20 00:00 40.13601 -75.05234 10368 ft 316 kts 37°
2026-04-20 00:00 40.15184 -75.03294 9888 ft 308 kts 37°
2026-04-20 00:00 40.16728 -75.01393 9373 ft 302 kts 37°
2026-04-20 00:01 40.18242 -74.99525 8831 ft 296 kts 37°
2026-04-20 00:01 40.19725 -74.97694 8326 ft 291 kts 37°
2026-04-20 00:01 40.22396 -74.93811 7320 ft 291 kts 57°
2026-04-20 00:02 40.23319 -74.91495 6866 ft 283 kts 57°
2026-04-20 00:02 40.24194 -74.89194 6362 ft 282 kts 60°
2026-04-20 00:02 40.24910 -74.86801 5856 ft 282 kts 64°
2026-04-20 00:02 40.25569 -74.84393 5351 ft 280 kts 65°
2026-04-20 00:03 40.26204 -74.81995 4852 ft 278 kts 65°
2026-04-20 00:03 40.26819 -74.79645 4394 ft 274 kts 66°
2026-04-20 00:03 40.27422 -74.77327 4172 ft 262 kts 66°
2026-04-20 00:03 40.27985 -74.75120 4081 ft 249 kts 66°
2026-04-20 00:04 40.28511 -74.73014 4037 ft 237 kts 66°
2026-04-20 00:04 40.29010 -74.71001 4015 ft 230 kts 66°
2026-04-20 00:04 40.29500 -74.69024 4006 ft 227 kts 66°
2026-04-20 00:04 40.29982 -74.67058 4015 ft 229 kts 66°
2026-04-20 00:05 40.30498 -74.64996 4025 ft 249 kts 66°
2026-04-20 00:05 40.31081 -74.62759 4053 ft 271 kts 66°
2026-04-20 00:05 40.31706 -74.60382 4072 ft 275 kts 66°
2026-04-20 00:05 40.32313 -74.58041 4050 ft 268 kts 66°
2026-04-20 00:06 40.32906 -74.55746 4017 ft 263 kts 66°
2026-04-20 00:06 40.33485 -74.53481 3949 ft 261 kts 66°
2026-04-20 00:06 40.33872 -74.51989 3884 ft 260 kts 66°
2026-04-20 00:06 40.34452 -74.49744 3809 ft 259 kts 66°
2026-04-20 00:07 40.35216 -74.46796 3710 ft 257 kts 66°
2026-04-20 00:07 40.35792 -74.44584 3617 ft 256 kts 66°
2026-04-20 00:07 40.36362 -74.42373 3506 ft 256 kts 65°
2026-04-20 00:07 40.36847 -74.40953 3422 ft 249 kts 49°
2026-04-20 00:08 40.38015 -74.39352 3336 ft 238 kts 37°
2026-04-20 00:08 40.39171 -74.37891 3254 ft 223 kts 37°
2026-04-20 00:08 40.40264 -74.36522 3151 ft 212 kts 36°
2026-04-20 00:08 40.41364 -74.35305 3036 ft 205 kts 21°
2026-04-20 00:09 40.42664 -74.34623 2942 ft 200 kts 14°
2026-04-20 00:09 40.43989 -74.33977 2864 ft 205 kts 14°
2026-04-20 00:09 40.45335 -74.33318 2830 ft 207 kts 14°
2026-04-20 00:09 40.46688 -74.32656 2817 ft 208 kts 15°
2026-04-20 00:10 40.47967 -74.32008 2945 ft 181 kts 15°
2026-04-20 00:10 40.49095 -74.31405 2881 ft 169 kts 15°
2026-04-20 00:10 40.50140 -74.30811 2833 ft 159 kts 17°
2026-04-20 00:10 40.51054 -74.30031 2794 ft 154 kts 30°
2026-04-20 00:11 40.51841 -74.29128 2777 ft 154 kts 36°
2026-04-20 00:11 40.52629 -74.28123 2795 ft 162 kts 37°
2026-04-20 00:11 40.53440 -74.27052 2804 ft 169 kts 38°
2026-04-20 00:11 40.54341 -74.25961 2643 ft 180 kts 27°
2026-04-20 00:12 40.55531 -74.25600 2496 ft 177 kts 356°
2026-04-20 00:12 40.56738 -74.25096 2318 ft 196 kts 31°
2026-04-20 00:12 40.57776 -74.23921 2231 ft 190 kts 37°
2026-04-20 00:12 40.58701 -74.22943 2032 ft 159 kts 25°
2026-04-20 00:13 40.59652 -74.22354 1568 ft 143 kts 16°
2026-04-20 00:13 40.60542 -74.21887 1252 ft 135 kts 16°
2026-04-20 00:13 40.61435 -74.21419 1180 ft 145 kts 18°
2026-04-20 00:13 40.62418 -74.20879 1034 ft 163 kts 19°
2026-04-20 00:14 40.63439 -74.20216 893 ft 162 kts 25°
2026-04-20 00:14 40.64427 -74.19534 678 ft 159 kts 23°
2026-04-20 00:14 40.65397 -74.18925 441 ft 149 kts 23°
2026-04-20 00:14 40.66306 -74.18359 293 ft 142 kts 22°
2026-04-20 00:15 40.67212 -74.17771 203 ft 148 kts 21°
2026-04-20 00:15 40.68153 -74.17172 43 ft 146 kts 22°
2026-04-20 00:15 40.68998 -74.16640 18 ft 121 kts 25°
2026-04-20 00:15 40.69399 -74.16383 21 ft 33 kts 24°
2026-04-20 00:16 40.69565 -74.16400 18 ft 25 kts 304°
2026-04-20 00:16 40.69604 -74.16504 18 ft 0 kts 296°
2026-04-20 00:16 40.69604 -74.16505 18 ft 0 kts 296°
2026-04-20 00:17 40.69620 -74.16547 18 ft 15 kts 296°
2026-04-20 00:17 40.69677 -74.16703 18 ft 17 kts 296°
2026-04-20 00:17 40.69682 -74.16717 18 ft 0 kts 296°
2026-04-20 00:18 40.69686 -74.16733 18 ft 7 kts 277°
2026-04-20 00:18 40.69664 -74.16827 18 ft 11 kts 248°
2026-04-20 00:19 40.69635 -74.16950 18 ft 14 kts 252°
2026-04-20 00:19 40.69693 -74.17053 18 ft 19 kts 333°
2026-04-20 00:19 40.69780 -74.17123 20 ft 10 kts 325°
2026-04-20 00:19 40.69818 -74.17178 18 ft 12 kts 324°
2026-04-20 00:20 40.69833 -74.17251 18 ft 10 kts 229°
2026-04-20 00:20 40.69756 -74.17339 18 ft 19 kts 217°
2026-04-20 00:20 40.69651 -74.17453 18 ft 10 kts 219°
2026-04-20 00:20 40.69632 -74.17506 18 ft 5 kts 295°
2026-04-20 00:21 40.69653 -74.17537 19 ft 0 kts 311°
2026-04-20 00:21 40.69655 -74.17540 19 ft 0 kts 311°